Goodland, KS

7:18 AM MST on December 13, 2019 (GMT -0700)
Renner-Goodland Municipal

Weather History for KGLD - September, 2019

Change the Weather History Date:

Tuesday, September 17, 2019

  Actual Average Record
Temperature  
Mean Temperature 77 °F 64 °F  
Max Temperature 92 °F 79 °F 99 °F (1947)
Min Temperature 62 °F 50 °F 32 °F (1981)
Degree Days  
Heating Degree Days 0 4  
Month to date heating degree days 2 35  
Since 1 July heating degree days 2 47  
Cooling Degree Days 12 3  
Month to date cooling degree days 150 78  
Year to date cooling degree days 996 911  
Growing Degree Days 26 (Base 50)    
Moisture  
Dew Point 55 °F    
Average Humidity 51    
Maximum Humidity 78    
Minimum Humidity 24    
Precipitation  
Precipitation 0.00 in 0.03 in 0.86 in (1971)
Month to date precipitation 0.36 0.71  
Year to date precipitation 21.22 16.61  
Snow  
Snow 0.00 in 0.00 in - ()
Month to date snowfall 0.0 0.1  
Since 1 July snowfall 0.0 0.1  
Since 1 September snowfall 0.0 0.1  
Snow Depth 0.00 in    
Sea Level Pressure  
Sea Level Pressure 29.73 in    
Wind  
Wind Speed 16 mph (South)    
Max Wind Speed 25 mph    
Max Gust Speed 37 mph    
Visibility 10 miles    
Events      
T = Trace of Precipitation, MM = Missing Value Source: NWS Daily Summary

Daily Weather History Graph

Daily Weather History Graph

Search for Another Location

Airport or City:

Astronomy

Sep. 17, 2019 Rise Set
Actual Time 6:29 AM MDT 6:52 PM MDT
Civil Twilight 6:02 AM MDT 7:19 PM MDT
Nautical Twilight 5:31 AM MDT 7:50 PM MDT
Astronomical Twilight 4:58 AM MDT 8:22 PM MDT
Moon 8:57 PM MDT (9/17) 9:35 AM MDT (9/17)
Length of Visible Light 13h 16m
Length of Day
12h 22m
Waning Gibbous, 89% of the Moon is Illuminated
Sep 17
Waning Gibbous
Sep 21
Last Quarter
Sep 28
New
Oct 5
First Quarter
Oct 13
Full

Hourly Weather History & Observations

Time (MDT) Temp. Heat Index Dew Point Humidity Pressure Visibility Wind Dir Wind Speed Gust Speed Precip Events Conditions
12:53 AM 71.1 °F - 55.0 °F 57% 29.76 in 10.0 mi South 17.3 mph - N/A   Clear
1:53 AM 70.0 °F - 55.0 °F 59% 29.75 in 10.0 mi South 17.3 mph 26.5 mph N/A   Clear
2:53 AM 69.1 °F - 55.0 °F 61% 29.74 in 10.0 mi South 13.8 mph - N/A   Clear
3:53 AM 66.0 °F - 55.0 °F 68% 29.75 in 10.0 mi South 12.7 mph - N/A   Clear
4:53 AM 66.0 °F - 55.0 °F 68% 29.74 in 10.0 mi South 12.7 mph - N/A   Clear
5:53 AM 63.0 °F - 55.9 °F 78% 29.75 in 10.0 mi SSE 13.8 mph - N/A   Clear
6:53 AM 63.0 °F - 55.9 °F 78% 29.77 in 10.0 mi South 16.1 mph - N/A   Clear
7:53 AM 66.9 °F - 57.0 °F 70% 29.76 in 10.0 mi South 20.7 mph - N/A   Clear
8:53 AM 71.1 °F - 57.0 °F 61% 29.76 in 10.0 mi South 20.7 mph 31.1 mph N/A   Clear
9:53 AM 75.0 °F - 57.9 °F 55% 29.76 in 10.0 mi South 19.6 mph 25.3 mph N/A   Clear
10:53 AM 80.1 °F 80.6 °F 57.9 °F 47% 29.75 in 10.0 mi South 17.3 mph - N/A   Clear
11:53 AM 84.0 °F 82.9 °F 55.0 °F 37% 29.72 in 10.0 mi SSW 15.0 mph 26.5 mph N/A   Clear
12:53 PM 89.1 °F 87.1 °F 55.0 °F 31% 29.70 in 10.0 mi SSW 12.7 mph 25.3 mph N/A   Clear
1:53 PM 91.0 °F - 50.0 °F 24% 29.68 in 10.0 mi SSW 17.3 mph 32.2 mph N/A   Clear
2:53 PM 90.0 °F - 48.9 °F 24% 29.67 in 10.0 mi South 23.0 mph 32.2 mph N/A   Clear
3:53 PM 89.1 °F - 48.0 °F 24% 29.67 in 10.0 mi SSW 16.1 mph 26.5 mph N/A   Clear
4:53 PM 90.0 °F - 48.0 °F 24% 29.67 in 10.0 mi SSW 11.5 mph 24.2 mph N/A   Clear
6:53 PM 75.9 °F - 53.1 °F 45% 29.70 in 10.0 mi South 10.4 mph - N/A   Clear
7:53 PM 75.0 °F - 55.0 °F 50% 29.72 in 10.0 mi South 13.8 mph - N/A   Clear
8:53 PM 75.9 °F - 57.0 °F 52% 29.72 in 10.0 mi South 15.0 mph - N/A   Clear
9:53 PM 73.9 °F - 55.9 °F 53% 29.73 in 10.0 mi South 17.3 mph - N/A   Clear
10:53 PM 73.0 °F - 57.0 °F 57% 29.73 in 10.0 mi South 16.1 mph - N/A   Clear
11:53 PM 71.1 °F - 57.0 °F 61% 29.73 in 10.0 mi South 13.8 mph - N/A   Clear